Theta_e
319 320 320 320 320 324 328 329 328 328 330 331 332 332 331 331 331 331 331 331 331 331 330 329 329 330 330 330 329 329 330 330 329 328 328 329 329 329 329 329 329 329 328 328 327 327 327 327 327 328 329 329 329 328 328 327 327 327 326 326 325 325 324 323 322 321 320 320 319 319 319 318 318 318
319 319 320 320 320 321 325 328 327 327 329 331 331 332 332 331 331 331 332 332 331 330 329 327 327 327 328 328 327 327 328 328 328 328 327 327 326 326 326 326 326 326 326 325 325 326 326 326 326 327 328 329 329 329 328 328 327 327 326 326 327 326 325 324 323 322 321 320 319 319 319 318 318 318
320 319 319 320 321 321 322 325 326 326 328 331 331 332 332 332 332 331 332 332 331 330 329 327 326 326 326 326 326 327 328 328 328 327 326 325 325 324 324 323 323 322 322 322 323 324 325 324 324 324 325 327 328 328 328 328 328 327 327 326 326 327 326 324 323 322 322 321 321 320 319 319 319 319
321 320 319 319 320 321 321 322 324 324 326 329 331 333 333 332 332 332 332 332 332 331 329 327 325 325 325 325 325 326 327 327 326 325 325 325 325 325 325 324 322 320 320 319 320 321 321 321 321 321 322 324 326 327 327 327 328 327 327 326 326 327 326 324 322 323 323 323 323 323 322 321 320 320
322 321 320 319 319 320 320 321 321 323 324 325 328 330 332 333 333 333 332 332 332 331 328 326 324 324 325 325 325 326 326 326 325 325 326 326 326 326 326 325 323 320 319 318 317 318 318 318 319 320 321 323 325 326 327 327 327 326 326 326 326 327 326 324 323 324 325 324 324 324 323 323 322 321
323 323 321 320 320 320 319 320 320 320 321 322 323 326 329 331 331 332 332 331 331 329 327 325 324 324 325 325 326 326 326 326 326 326 326 327 327 327 327 326 325 322 319 318 317 317 317 319 321 323 324 325 326 327 327 327 327 326 326 326 326 326 326 325 324 324 325 325 324 323 323 322 322 322
328 326 323 321 321 320 319 319 319 319 320 321 321 323 325 327 328 329 329 329 328 327 326 324 324 324 325 325 326 327 327 326 326 326 327 328 329 329 328 328 327 324 321 318 318 318 319 320 323 325 325 326 326 326 327 327 326 326 325 326 326 326 326 326 325 325 325 324 323 322 320 319 319 318
333 331 328 324 322 322 320 319 319 318 319 320 320 322 323 325 327 328 328 328 328 327 325 324 324 324 325 326 326 327 327 327 327 327 329 330 330 331 330 329 328 326 322 319 318 319 320 322 324 325 325 325 325 325 325 324 324 323 322 322 323 323 324 324 324 324 323 322 320 319 317 316 315 314
337 336 334 331 328 325 322 321 321 320 319 320 320 320 321 323 326 329 329 329 330 329 326 324 324 323 324 326 327 327 327 327 327 329 330 331 331 331 331 330 329 327 324 319 318 320 322 323 324 325 325 325 325 324 324 322 320 318 317 316 317 317 318 318 319 319 318 318 317 316 315 314 313 312
339 339 338 338 337 332 325 321 322 323 321 320 320 320 320 321 324 327 329 330 331 331 328 324 324 323 323 325 326 327 327 327 328 329 330 331 331 331 331 330 329 328 325 319 317 319 322 323 324 324 324 325 325 324 322 320 318 316 315 314 314 314 314 314 314 314 314 314 314 314 313 313 312 312
340 340 340 340 341 339 333 325 321 322 322 321 320 320 320 320 321 324 326 329 331 330 327 324 324 324 324 325 326 328 328 328 328 329 330 331 331 331 331 330 329 328 324 319 318 320 322 323 324 323 323 323 322 321 320 318 317 316 315 315 315 315 315 314 314 314 314 314 313 313 313 313 313 313
341 341 342 341 341 341 339 333 327 323 321 321 321 320 321 321 321 322 324 327 330 329 326 324 325 326 326 327 328 328 328 328 329 331 332 332 331 332 332 330 329 326 322 320 319 320 321 322 323 322 321 320 319 318 317 317 316 317 316 316 316 315 315 314 314 314 314 315 315 315 315 315 315 315
342 342 342 343 343 342 341 339 335 329 324 322 321 321 321 321 322 322 323 326 329 328 325 324 327 330 330 329 329 329 329 330 331 332 333 333 332 332 332 330 328 324 321 319 319 320 321 321 321 320 319 318 317 317 317 317 317 318 318 317 317 316 315 315 314 314 316 317 317 317 317 317 316 317
343 344 344 344 345 344 343 342 340 336 330 325 322 322 322 322 322 323 324 327 329 328 326 326 330 334 333 331 330 331 332 333 333 332 332 332 332 332 331 329 327 323 321 321 321 320 320 320 320 319 318 318 317 317 317 318 318 318 318 318 317 316 316 316 316 315 317 318 318 318 318 318 318 317
345 345 345 346 346 345 345 342 340 339 335 329 324 323 323 322 322 322 323 327 329 328 327 329 333 335 334 331 331 331 332 333 333 332 331 331 331 331 330 328 325 323 322 323 323 321 319 319 320 319 318 318 317 317 318 317 317 317 317 316 316 315 314 314 315 316 316 317 318 318 317 317 316 316
347 347 347 347 347 346 345 342 339 338 338 333 327 324 324 323 322 321 321 325 329 330 330 333 335 335 334 333 332 332 332 332 332 331 330 329 330 330 328 326 325 323 323 324 324 323 321 320 320 319 318 318 318 317 317 317 317 317 316 315 314 313 311 311 311 311 312 313 313 314 314 314 315 315
348 348 348 348 348 347 344 341 338 337 338 337 331 327 327 326 323 320 320 325 330 332 333 335 335 334 333 332 332 332 332 332 331 330 329 328 329 329 327 325 324 325 325 325 325 324 322 320 319 319 318 318 318 318 317 316 316 315 314 313 311 309 307 306 305 306 306 307 308 309 309 310 311 311
348 348 349 348 348 347 345 342 340 338 339 339 335 331 330 328 325 321 321 325 330 333 334 335 334 333 331 330 330 331 332 332 331 329 329 329 329 327 325 324 324 325 325 325 324 322 321 319 319 318 317 317 317 317 316 315 314 312 311 308 306 305 304 304 304 304 304 304 305 306 307 308 309 309
349 350 350 349 348 347 346 344 342 340 340 339 337 333 332 331 328 324 323 326 330 333 334 335 334 332 331 331 331 331 331 331 331 330 329 328 327 325 323 323 324 323 323 322 321 320 319 318 317 316 315 315 314 314 313 311 309 307 306 305 304 304 304 305 305 305 306 307 309 310 312 314 315 315
349 349 350 350 349 348 348 345 342 341 340 339 336 333 333 333 329 324 324 327 330 332 333 334 332 331 332 332 332 331 331 331 330 329 328 326 324 323 323 322 322 321 320 319 319 318 317 315 314 314 313 311 311 310 309 306 305 304 304 305 306 306 306 306 307 307 309 312 313 315 316 316 317 317
348 349 351 351 350 349 348 345 343 341 339 338 335 332 333 333 329 325 326 327 329 332 333 332 330 330 332 333 333 332 332 331 329 327 325 323 322 321 321 320 320 319 318 318 317 315 315 314 313 312 311 309 308 308 305 304 303 304 304 306 306 306 306 306 306 307 309 312 314 315 316 316 317 317
350 351 351 351 350 349 348 345 343 342 340 338 334 332 333 333 329 326 326 328 331 332 330 329 330 331 332 333 332 331 330 328 326 324 322 320 319 319 319 319 319 318 317 316 315 314 314 314 312 309 308 307 307 306 305 304 303 304 305 306 306 306 305 304 304 304 306 310 313 315 315 316 316 316
352 352 352 352 350 349 348 346 343 342 341 337 332 330 331 329 327 327 328 330 330 329 328 329 330 331 332 332 331 330 328 326 323 321 319 318 318 317 317 317 318 317 316 315 315 314 314 313 310 307 306 306 306 305 304 304 304 304 305 306 305 305 304 304 304 304 304 307 312 315 315 315 315 314
353 353 353 351 350 349 348 345 343 342 338 334 332 329 327 327 328 330 329 329 328 328 329 330 329 330 331 331 330 329 326 323 320 318 317 317 316 316 316 316 316 316 316 315 314 313 312 310 308 307 306 307 307 306 305 304 305 305 305 305 305 304 304 304 305 306 307 308 310 313 314 314 313 313
354 354 352 350 349 350 348 345 344 340 335 333 331 328 327 329 331 329 327 327 328 329 330 330 330 330 331 330 328 326 322 319 318 317 317 316 316 315 316 316 316 316 316 315 314 311 309 308 307 307 307 307 307 307 306 305 304 305 305 305 304 304 304 304 305 307 309 311 311 312 312 312 312 313
355 353 351 349 349 349 347 344 343 339 334 331 329 328 330 333 330 326 326 327 327 329 330 330 331 331 330 328 325 321 319 317 317 317 316 316 316 315 315 316 316 316 316 315 312 310 308 307 307 307 307 307 308 308 307 306 304 304 303 304 304 304 304 304 305 307 309 311 311 311 311 312 312 313
354 352 350 348 348 346 344 343 341 337 332 329 329 331 334 333 329 326 326 326 327 329 330 331 331 330 327 323 320 318 317 317 317 316 316 316 316 316 316 317 316 316 315 314 311 309 307 306 307 307 307 307 307 307 307 306 304 303 303 303 304 303 303 303 304 305 307 308 309 310 311 312 313 313
352 350 348 347 346 344 342 340 337 333 331 330 331 333 334 332 328 326 326 328 329 330 331 331 330 326 322 319 318 318 318 317 317 316 316 316 317 317 317 317 316 316 315 313 310 308 307 306 307 307 307 307 306 306 306 306 305 304 304 303 303 302 303 304 306 308 309 310 311 312 312 313 313 313
350 348 346 345 344 341 338 335 333 332 332 332 332 332 331 329 326 326 328 331 331 331 331 330 326 321 319 318 318 318 318 317 317 317 317 317 317 317 317 316 316 315 314 312 310 308 307 306 306 306 306 305 305 305 305 305 305 304 304 303 303 304 307 309 311 311 311 312 312 312 312 312 312 312
348 346 344 344 342 338 334 331 331 333 333 333 332 331 329 327 327 329 331 331 331 331 329 325 321 319 319 319 318 318 318 318 318 318 318 318 318 317 317 316 315 315 313 312 310 308 306 306 305 305 304 304 305 305 305 305 304 303 303 304 306 308 311 312 312 311 311 311 311 311 311 312 312 312
347 345 344 342 338 333 331 330 331 334 334 334 332 330 329 329 330 331 331 331 330 328 324 321 320 319 319 319 319 319 318 318 318 318 318 318 318 317 316 315 315 314 313 311 309 307 306 305 304 304 304 304 304 304 304 304 304 304 305 307 309 310 312 312 311 311 309 309 310 311 312 312 313 313
346 345 342 339 334 330 329 329 331 333 333 331 330 329 330 331 332 331 330 328 326 323 321 320 320 320 319 319 319 319 319 319 318 318 319 319 318 316 315 314 314 313 312 310 309 307 305 303 302 302 303 303 303 303 304 304 305 306 307 309 310 311 312 312 310 309 307 308 309 311 312 313 313 313
345 343 340 338 334 330 328 328 329 330 329 328 329 331 331 331 330 328 327 325 323 321 321 321 321 320 320 320 319 319 319 319 319 319 319 318 317 315 314 314 313 311 309 308 307 305 303 301 301 301 301 302 303 304 305 305 306 307 308 310 311 312 311 309 308 307 307 309 311 311 312 312 312 311
344 342 340 337 334 330 328 328 328 327 328 330 331 331 330 328 327 326 324 323 322 322 322 321 321 321 321 320 320 320 320 320 320 320 319 317 316 315 314 313 312 309 308 307 306 303 301 300 300 300 301 302 303 304 305 306 307 307 308 309 310 310 308 306 306 308 310 311 311 311 311 311 311 310
342 341 339 336 332 330 329 328 327 328 330 331 330 329 328 327 325 324 323 322 323 323 322 322 322 322 321 321 321 321 321 321 320 319 317 316 315 314 313 311 309 308 307 306 304 301 300 300 300 300 301 302 304 304 305 306 307 308 307 307 307 307 306 306 308 310 311 312 311 311 310 310 310 309
340 339 337 335 333 331 329 328 328 330 332 331 328 328 327 326 324 323 323 323 323 323 323 322 322 322 322 322 322 322 321 320 319 317 315 315 314 313 311 309 308 307 307 305 301 299 299 300 301 302 303 304 305 305 305 306 307 308 307 306 305 305 306 308 310 311 312 312 311 310 310 309 309 309
339 338 336 335 334 331 328 328 329 332 332 331 329 328 326 324 324 323 323 323 323 323 322 322 321 321 321 321 321 320 319 318 317 315 314 313 312 311 309 308 307 307 305 301 299 299 299 300 301 303 304 304 305 305 305 305 306 307 306 305 304 304 306 309 311 311 312 311 310 310 309 309 309 309
337 337 335 334 331 329 328 330 331 332 332 331 329 327 325 324 324 324 324 323 323 322 321 321 321 320 320 319 319 318 318 317 315 314 313 312 311 309 308 307 307 305 301 299 298 298 299 300 301 302 303 304 305 305 306 306 306 306 305 304 304 305 307 310 311 311 310 310 310 309 309 309 309 309
335 334 333 331 329 329 330 332 332 333 332 331 328 326 325 324 324 324 323 323 322 322 321 320 320 319 318 318 317 317 316 315 314 313 312 310 309 308 307 306 305 301 299 298 298 298 299 300 301 302 303 304 305 306 306 306 306 306 304 304 305 307 309 310 310 310 310 310 309 309 309 308 308 307
334 333 332 331 331 331 331 332 332 332 331 329 327 325 325 324 324 323 323 322 321 320 318 317 317 317 316 316 316 315 314 313 312 311 310 309 307 307 306 304 301 299 298 298 297 297 299 300 301 302 303 304 305 306 306 306 306 305 303 303 306 310 311 310 310 310 309 309 309 308 308 307 307 306
335 334 334 333 332 332 332 332 332 331 329 328 326 325 324 324 323 322 321 320 319 317 316 315 314 314 313 313 312 311 311 310 310 309 308 307 306 305 303 301 298 297 297 297 297 298 299 300 301 301 303 304 305 306 306 306 306 305 303 303 305 309 311 311 310 309 309 309 308 307 307 306 305 305
335 335 334 333 333 333 332 332 331 330 328 327 326 325 324 323 322 321 320 318 317 315 314 313 312 311 310 310 309 308 308 308 308 308 307 306 305 304 301 299 297 296 297 297 297 298 299 300 301 301 303 305 306 306 306 306 305 304 303 303 305 308 310 310 309 309 309 308 307 306 305 304 304 303
334 334 333 333 333 332 332 331 330 329 327 326 325 324 323 322 320 319 318 317 315 314 313 312 311 311 310 309 309 308 307 307 307 307 306 305 305 303 300 298 297 297 297 297 297 298 300 300 301 302 303 305 306 306 306 305 305 304 304 304 305 306 307 306 306 307 309 308 307 306 305 303 302 302
333 333 333 333 332 332 331 330 329 327 326 325 324 322 321 320 319 318 316 315 314 312 311 311 310 310 310 309 309 308 307 307 306 306 305 305 304 302 300 297 297 297 296 297 297 299 300 301 301 302 303 305 306 306 305 305 304 305 304 304 304 304 304 305 306 308 309 308 308 307 305 303 302 301
333 332 332 332 331 330 329 328 327 326 325 324 322 320 319 318 316 315 314 313 312 311 311 310 310 310 310 309 308 308 307 306 306 306 305 305 304 303 299 297 297 297 297 297 298 299 300 301 301 302 303 305 306 306 305 304 304 305 305 304 303 303 304 306 307 308 309 308 308 307 306 304 302 301
Wind_Speed
15 16 16 16 15 15 16 16 15 15 14 14 14 14 13 11 10 9 10 9 9 9 9 10 11 12 13 13 13 12 12 12 12 12 12 12 12 12 13 15 16 17 17 18 18 18 18 18 18 18 18 18 18 18 18 17 17 17 16 17 17 18 18 18 18 17 17 17 17 17 17 17 17 17
16 17 17 16 16 16 17 18 17 17 16 15 15 15 14 13 12 11 11 11 10 10 9 9 10 11 12 12 12 12 12 12 11 11 11 11 12 13 15 16 18 19 19 19 19 20 20 20 20 20 20 20 20 20 19 19 19 18 18 18 18 18 18 19 19 18 18 17 17 17 18 18 18 18
17 17 17 17 17 17 18 18 19 18 18 17 16 16 15 14 14 13 12 13 12 12 11 9 9 10 11 12 12 12 12 11 11 10 10 10 12 14 15 17 18 19 20 20 20 21 21 21 22 22 22 22 22 21 21 20 20 20 20 19 19 19 18 18 18 17 16 15 16 16 17 17 18 18
18 18 18 18 18 18 18 19 19 19 20 19 18 17 16 15 14 14 14 16 15 14 13 11 10 10 11 12 12 12 12 11 11 10 9 11 13 14 15 16 17 18 19 19 20 21 22 23 23 23 23 23 22 22 21 21 21 21 21 21 20 19 18 17 16 15 15 15 16 16 17 18 18 18
19 19 19 19 18 19 19 20 20 20 20 20 20 19 18 17 17 17 17 18 18 16 14 12 11 11 12 12 11 11 11 11 10 9 10 11 13 13 14 14 15 16 17 18 19 21 22 23 22 21 21 21 21 21 20 20 20 20 21 21 20 20 19 18 17 16 16 16 17 17 18 19 20 20
21 21 20 20 19 20 20 21 21 21 21 21 21 20 20 19 19 19 19 19 19 18 15 13 12 12 12 11 10 10 11 10 10 10 11 12 12 13 14 15 15 15 16 17 18 19 19 20 19 18 18 18 18 18 18 17 17 18 18 19 19 20 20 19 19 19 19 19 19 20 20 21 22 22
22 22 21 21 21 21 21 22 22 22 22 21 21 20 20 19 18 18 18 19 18 18 16 14 13 12 12 11 10 11 11 10 10 11 11 11 13 15 16 17 17 17 17 18 17 16 16 16 16 16 16 16 16 17 17 17 17 17 17 17 18 19 20 20 21 22 22 22 22 23 23 23 24 24
24 23 23 22 22 23 23 23 22 22 22 21 20 20 20 19 18 17 17 18 18 17 17 15 14 13 13 12 12 12 11 10 11 12 11 13 15 17 18 19 19 19 19 18 17 16 15 15 15 16 16 16 16 17 17 17 17 18 19 19 19 20 20 21 22 23 24 24 24 25 25 25 25 26
26 25 24 23 23 24 24 25 24 22 22 21 20 20 20 20 19 18 18 18 17 17 18 17 15 15 15 14 13 13 12 12 12 12 13 15 17 18 20 21 21 21 20 18 17 16 14 15 15 16 16 17 17 18 18 18 19 20 21 22 23 23 24 24 25 25 26 26 26 27 27 27 28 29
27 26 26 25 24 24 25 25 25 23 23 22 21 20 20 20 20 20 20 19 18 18 18 18 17 17 17 16 15 14 14 14 14 14 15 16 17 19 21 22 23 22 20 18 17 16 15 15 15 16 17 18 19 19 20 21 22 22 22 23 24 25 26 27 28 28 28 29 29 30 30 30 31 31
28 27 26 26 26 26 25 25 25 24 24 23 22 21 20 20 20 21 21 20 19 19 20 20 20 19 17 17 16 15 15 15 16 16 17 19 19 20 22 23 24 23 21 19 17 16 15 15 15 16 17 18 19 20 21 22 23 23 23 24 24 24 24 25 26 27 28 29 30 31 31 31 32 32
30 28 27 27 27 27 26 25 25 25 24 24 24 23 22 21 21 21 21 21 20 20 21 21 21 20 19 18 17 16 15 15 16 16 18 21 23 23 24 24 24 23 21 19 18 16 16 16 16 17 18 19 20 20 20 21 21 22 23 23 23 23 24 24 25 25 25 25 26 26 27 28 28 27
31 29 29 29 28 27 27 26 26 25 24 24 24 24 23 22 21 20 20 21 20 20 21 22 22 21 20 19 17 17 16 16 18 18 18 21 24 26 26 25 23 22 20 18 18 17 17 18 18 20 21 22 22 21 20 21 21 21 22 22 22 23 24 25 25 25 25 24 23 23 23 23 22 22
30 29 30 30 30 30 29 28 27 26 25 24 24 24 24 23 21 20 20 20 20 20 21 22 21 21 21 19 18 18 19 20 21 20 20 22 24 25 26 25 23 21 19 19 18 18 18 21 22 22 23 23 22 21 21 21 22 23 23 23 24 24 23 23 23 24 24 24 23 23 23 23 23 23
28 28 29 30 31 34 33 29 27 26 24 24 23 23 23 23 22 20 20 20 20 20 22 21 20 20 21 20 19 21 22 23 22 20 21 24 25 24 25 26 23 21 20 21 22 21 21 23 26 25 23 22 21 21 21 22 23 24 25 25 25 24 24 22 22 22 23 24 25 25 26 26 27 27
26 26 27 28 30 35 35 30 27 27 24 22 22 23 23 23 22 21 20 20 21 20 20 20 20 21 21 21 22 23 24 25 24 21 21 24 25 24 23 24 23 21 21 23 24 25 23 24 26 25 23 22 22 23 23 23 24 25 25 26 26 27 27 26 25 25 25 26 27 28 29 30 30 31
23 25 28 29 30 35 36 29 25 26 25 21 20 21 22 22 23 22 21 21 21 20 20 22 22 22 23 23 23 24 26 27 25 22 22 23 25 23 21 21 21 21 22 23 25 27 25 23 25 25 24 24 24 24 24 24 25 27 27 28 29 28 28 27 27 26 26 27 28 29 30 31 32 33
24 28 30 28 28 32 33 28 24 23 23 22 20 20 21 22 23 24 22 21 21 21 21 22 23 23 23 23 23 24 26 25 23 22 22 23 23 22 20 20 21 21 22 23 25 27 25 22 24 26 25 25 26 26 26 26 27 28 29 28 27 25 24 23 22 23 23 24 24 24 25 25 26 27
27 30 29 27 27 29 28 26 22 18 18 20 20 18 19 21 22 23 22 20 21 21 20 21 22 24 23 22 22 23 22 20 20 21 22 21 21 20 20 20 20 20 21 21 23 25 24 22 25 27 26 26 27 27 27 27 27 26 25 23 22 21 21 20 20 21 22 22 21 21 21 21 22 22
28 29 27 26 27 27 26 24 18 14 15 18 17 16 17 18 21 21 20 19 19 18 18 20 23 25 24 21 18 17 17 17 19 20 20 19 18 19 19 20 20 19 19 19 19 22 23 23 25 27 26 27 27 26 25 24 23 21 19 19 19 19 20 20 20 21 22 21 21 21 21 21 22 23
28 26 25 25 25 25 25 21 14 11 13 16 15 15 16 18 19 20 19 17 16 16 18 21 22 22 20 17 14 14 16 17 17 17 17 17 17 18 20 20 19 17 17 16 16 20 23 24 26 28 27 26 26 25 23 22 20 20 19 19 20 21 22 22 21 21 22 23 22 22 23 23 23 24
27 25 24 23 23 23 21 17 13 12 14 15 15 15 16 18 19 18 17 15 15 17 19 19 17 16 14 13 13 13 14 15 15 15 16 16 17 18 18 17 16 16 15 14 17 22 25 25 26 27 28 28 27 24 23 23 22 23 23 23 23 24 24 24 22 21 22 23 24 24 24 23 24 25
25 24 22 21 21 20 18 15 13 13 14 16 15 14 16 18 17 15 13 14 16 17 16 15 13 12 12 13 13 13 13 13 14 15 16 16 16 15 14 14 14 15 15 15 19 24 26 26 26 25 26 28 28 26 25 25 26 26 26 27 28 27 26 25 23 21 20 22 23 24 24 23 24 25
24 22 20 20 21 19 17 15 13 12 14 15 15 15 17 17 14 11 12 13 14 14 13 13 13 12 12 13 14 14 14 14 15 15 15 14 13 12 12 12 13 15 15 18 21 24 25 26 26 23 22 25 28 29 28 28 28 28 29 30 30 29 27 26 24 22 20 20 22 23 24 24 24 26
22 21 19 20 20 19 18 17 14 12 14 15 15 16 17 14 11 11 12 13 13 13 12 12 13 13 13 13 14 14 14 13 13 14 13 12 11 10 11 12 13 15 16 19 22 24 25 25 24 22 22 23 26 29 30 31 31 30 30 31 31 30 29 28 27 25 22 21 21 22 23 24 24 26
20 18 18 18 17 16 16 16 14 14 15 16 17 17 16 13 12 13 14 14 14 13 12 12 13 13 12 13 13 13 11 11 11 11 10 10 9 9 11 12 15 17 18 19 22 23 23 23 22 22 23 24 26 28 31 33 33 31 31 31 31 30 30 29 28 27 25 24 24 23 23 24 25 26
18 17 17 16 14 13 13 14 15 16 16 17 18 17 15 14 15 16 16 16 15 13 13 13 12 12 12 12 12 10 9 9 9 8 8 9 9 10 12 14 16 18 20 21 21 22 22 22 22 22 23 24 26 29 31 33 33 32 32 32 31 31 30 29 28 28 26 26 26 25 25 26 26 26
17 17 16 14 13 12 13 15 16 16 17 18 17 16 15 17 18 18 17 16 14 13 13 13 12 11 12 11 10 9 8 7 7 7 8 9 10 12 14 15 17 20 21 22 22 21 21 21 21 21 22 24 27 29 31 32 33 33 34 34 33 30 28 26 25 24 24 24 24 24 25 27 27 27
17 16 16 14 14 14 15 17 18 17 17 17 16 16 17 18 19 19 17 15 13 13 13 12 12 11 11 10 9 9 8 8 8 8 9 11 13 14 15 16 18 20 21 22 22 21 20 20 21 22 23 24 26 27 29 31 33 33 33 33 32 28 24 22 22 23 23 23 24 25 27 28 28 29
17 17 17 17 17 17 17 18 18 18 17 17 17 17 18 19 19 17 16 14 13 12 12 12 11 10 10 10 10 10 10 10 11 11 12 13 14 16 17 18 19 19 20 22 22 21 20 21 21 22 23 24 24 26 28 30 32 32 31 30 29 27 23 22 23 25 27 28 29 30 30 30 30 30
20 20 19 18 18 18 19 19 18 18 17 18 18 18 18 17 15 14 14 13 13 12 12 11 10 10 10 10 11 11 12 13 14 14 14 15 15 16 18 19 20 21 21 21 20 21 21 21 21 21 22 23 25 26 26 26 29 30 29 26 25 26 25 26 28 30 31 32 33 32 32 31 31 31
23 22 21 20 21 21 21 21 20 18 18 18 17 17 16 15 14 14 14 13 13 12 11 10 10 10 11 11 12 13 14 15 16 16 17 17 17 17 18 20 21 22 22 21 20 20 21 21 20 20 21 24 25 25 24 24 26 27 26 25 24 25 26 28 32 34 33 33 34 33 32 32 33 34
25 24 23 22 22 22 22 21 20 18 18 18 18 17 16 16 15 14 14 13 12 11 11 11 11 12 12 13 15 16 16 17 18 18 18 17 17 17 18 21 22 22 22 21 21 21 20 19 19 21 21 21 21 20 22 24 25 25 25 25 26 26 28 30 33 34 34 33 34 34 35 36 37 38
25 25 25 24 23 23 22 21 19 19 19 18 17 17 16 15 15 14 14 13 12 12 12 12 13 13 15 16 17 17 18 18 19 19 18 17 17 18 20 22 22 21 20 22 23 22 21 20 20 21 20 18 18 17 18 21 23 24 25 27 27 28 31 33 34 34 32 31 33 36 39 41 42 42
26 25 25 25 24 22 21 20 19 20 19 17 16 15 15 15 15 15 14 12 12 12 12 12 13 15 16 17 18 18 18 18 18 18 17 17 18 20 21 21 20 19 21 23 23 21 21 21 21 22 21 20 21 20 18 18 20 23 26 29 30 30 32 34 34 33 32 31 33 37 42 45 47 48
26 25 24 24 24 23 21 20 20 19 18 16 16 15 15 16 16 14 13 12 12 12 12 13 14 15 16 17 18 18 17 17 17 17 16 17 18 20 20 19 19 20 22 23 22 21 21 21 20 20 21 23 25 27 25 22 20 21 26 31 33 32 33 34 33 32 32 33 35 39 43 47 50 51
25 24 24 23 23 22 22 21 20 19 17 16 15 15 15 16 14 13 12 12 12 12 12 13 14 14 15 15 16 16 17 17 17 17 17 17 18 19 19 19 20 21 22 21 20 19 20 20 17 17 20 23 26 29 30 28 24 23 25 30 33 33 34 34 33 33 33 35 38 42 45 49 52 53
24 24 24 24 23 23 22 20 18 18 18 17 16 15 16 15 14 13 12 12 12 12 12 13 13 13 13 14 15 17 18 18 17 16 16 17 18 18 19 20 21 21 20 19 18 18 19 18 16 15 18 22 24 27 30 32 31 29 27 29 32 34 33 32 32 33 35 38 42 45 48 51 53 53
24 24 24 24 24 22 20 19 18 19 18 17 16 16 16 14 13 13 12 12 12 11 11 11 12 13 13 14 15 17 18 17 17 16 16 17 17 17 18 20 20 19 18 18 18 18 17 15 14 15 17 20 22 25 27 30 32 33 31 29 30 32 31 29 30 33 37 41 44 48 51 52 51 48
25 24 23 22 22 21 20 19 19 19 18 16 16 16 15 14 13 12 12 11 10 10 10 10 11 12 13 15 16 17 18 18 17 16 16 16 17 17 18 18 17 17 17 18 18 17 16 15 14 15 17 19 21 23 26 28 31 34 33 30 28 28 28 27 29 33 37 42 45 49 52 53 50 47
26 24 23 21 21 21 21 20 19 18 18 17 16 15 14 13 12 12 11 9 9 9 9 10 11 11 13 14 15 16 16 16 15 15 15 15 16 16 16 15 15 16 17 18 18 17 16 15 14 15 17 19 21 23 25 27 31 34 35 32 29 26 25 25 28 32 36 41 45 47 48 48 47 48
26 25 24 23 23 23 21 19 19 19 19 17 16 14 13 13 12 11 9 8 8 9 9 10 10 11 12 12 12 12 13 14 15 15 15 15 15 15 14 14 14 15 17 18 17 17 17 16 15 16 17 18 20 22 24 27 31 34 35 34 31 29 26 26 28 31 34 38 42 42 41 40 41 45
25 25 25 25 23 21 19 19 19 19 18 16 14 13 13 12 11 9 8 8 8 8 9 9 10 11 11 10 9 10 13 14 15 16 16 16 15 14 13 13 14 15 16 17 17 17 16 16 16 16 17 17 19 21 24 27 31 33 34 34 33 32 30 30 30 31 33 37 40 39 36 35 37 40
24 25 24 23 21 20 20 20 20 18 16 14 13 12 11 10 9 8 8 8 8 8 8 8 9 10 10 10 10 11 13 14 15 16 17 16 15 14 13 13 14 15 16 17 17 17 16 16 16 16 16 17 18 21 24 27 30 32 33 34 34 34 34 35 35 36 38 41 42 41 38 35 35 36
23 23 22 21 21 21 21 20 19 16 15 13 12 11 9 8 8 8 8 8 8 7 8 8 9 10 10 11 12 14 14 15 16 17 17 17 16 15 14 13 14 15 16 16 16 16 16 17 17 16 15 16 18 20 23 27 30 31 33 34 34 34 35 36 37 40 44 47 46 43 41 40 38 36
Wind_Direction
250 251 248 246 245 243 248 252 252 249 246 245 244 241 242 248 256 261 264 266 268 271 276 275 272 268 265 265 268 271 272 272 275 279 279 276 275 276 281 288 295 298 299 298 299 298 296 293 290 288 288 288 289 288 287 287 287 286 284 280 277 277 277 278 278 277 277 276 275 274 273 272 270 268
249 251 250 248 247 246 248 252 254 252 248 246 245 243 245 252 259 262 266 269 271 279 286 282 273 266 262 264 268 271 272 272 274 277 279 283 288 293 296 299 301 301 300 298 296 294 292 290 288 287 286 286 286 286 285 284 284 284 282 280 276 273 272 273 274 276 277 276 274 273 272 272 271 270
249 250 251 250 250 249 250 252 254 253 250 249 250 249 249 255 260 263 266 269 274 285 292 288 274 264 263 267 273 275 275 275 277 280 286 293 300 303 304 303 302 300 298 296 294 292 289 286 285 284 283 283 283 284 284 283 283 282 281 279 275 271 268 267 268 271 272 274 274 272 270 270 270 270
248 250 251 252 252 252 253 253 254 255 254 254 255 255 254 256 259 263 267 271 278 285 289 286 274 262 261 266 271 273 273 277 281 285 294 302 305 304 303 300 297 295 294 292 290 289 287 286 285 283 281 280 280 280 280 280 279 279 279 277 273 269 267 264 260 260 265 271 273 273 271 269 267 267
247 249 252 254 254 254 256 257 257 257 257 258 258 258 257 257 260 265 269 274 280 284 286 286 277 266 264 265 265 265 265 270 276 283 294 298 300 303 304 303 299 294 291 290 289 288 288 288 287 285 283 280 278 278 277 276 274 274 275 275 271 266 265 262 257 258 266 270 272 272 272 271 269 269
247 250 252 254 255 255 256 258 260 260 260 261 262 262 261 261 263 266 270 274 278 282 285 284 279 271 268 266 259 256 257 262 269 277 286 292 300 308 313 314 312 305 298 295 293 290 289 289 290 289 285 281 280 279 278 277 275 273 273 273 270 266 263 260 257 260 265 268 269 270 271 272 272 273
251 252 253 255 256 256 256 257 260 261 261 261 264 266 266 265 265 265 267 270 274 278 280 279 277 271 265 262 259 256 255 259 269 277 287 301 313 319 322 322 322 317 310 305 302 297 290 287 287 287 283 280 279 278 278 278 278 278 276 273 270 267 263 261 259 261 264 266 267 267 267 269 271 272
257 257 256 256 257 258 257 256 257 259 262 264 265 268 269 269 268 266 267 268 270 273 275 275 275 271 264 259 258 257 257 263 274 286 302 314 320 324 326 325 324 321 315 310 308 303 293 284 282 282 280 278 276 275 274 275 277 278 278 276 273 269 266 263 261 261 262 264 265 265 265 265 266 268
260 262 263 263 261 260 258 257 257 258 261 264 266 268 270 271 270 268 268 269 269 271 274 275 274 270 264 260 258 258 262 270 280 293 307 314 318 323 325 324 322 320 315 311 308 304 294 282 278 278 278 278 277 276 276 277 279 280 279 277 275 274 272 269 267 265 263 263 262 262 263 263 263 264
260 264 267 268 268 265 262 259 259 259 259 261 263 266 269 270 270 269 269 270 272 276 280 279 275 271 267 262 259 259 265 275 284 291 300 306 312 318 321 321 320 318 314 310 307 304 294 284 279 278 278 279 280 281 283 285 286 286 284 281 279 278 277 276 275 274 272 269 267 265 263 262 262 262
261 263 267 269 271 271 268 264 261 260 259 259 260 262 265 267 267 267 268 268 271 277 280 281 278 275 272 266 263 264 269 274 282 291 300 303 308 314 316 318 319 317 313 309 306 304 297 289 285 283 282 282 282 283 284 285 287 287 288 288 287 287 286 284 283 281 279 277 274 272 269 266 265 264
263 265 267 269 271 273 273 271 267 263 260 260 260 259 260 262 263 265 266 266 267 271 274 276 275 273 272 268 266 268 270 276 285 295 300 301 305 310 312 314 317 315 311 308 306 305 300 294 291 290 290 292 291 288 286 286 287 288 290 291 292 293 294 293 291 288 286 284 282 279 277 274 272 271
265 267 269 270 272 273 273 274 272 269 265 261 258 257 256 256 259 262 264 263 262 265 269 271 271 271 271 272 274 275 278 283 288 290 292 295 300 305 307 312 316 313 307 304 303 303 302 298 296 295 296 298 297 294 292 292 292 294 294 293 292 293 295 294 291 288 287 286 284 282 279 275 272 271
268 270 272 273 274 273 272 273 273 272 270 264 258 255 252 250 253 258 260 260 258 260 265 268 269 270 274 278 281 281 281 281 281 284 290 294 297 302 304 309 313 310 304 302 300 301 304 303 304 304 303 302 300 296 294 295 297 298 298 296 295 296 296 293 287 282 280 279 278 275 272 269 268 267
271 274 275 276 276 274 272 271 271 272 270 265 257 252 249 247 248 252 254 256 257 259 263 266 269 272 277 281 278 274 274 276 282 292 296 296 297 302 304 306 309 308 305 304 303 304 307 308 309 310 309 306 302 299 298 298 299 299 298 297 298 299 298 293 286 278 273 271 270 269 268 267 267 267
274 274 272 271 273 275 274 273 273 272 270 265 256 251 248 247 246 248 251 254 257 259 261 264 267 270 273 275 275 274 276 280 287 294 294 295 297 298 299 300 303 304 303 302 302 304 308 310 308 309 310 307 304 302 303 302 301 299 298 298 299 299 297 293 287 282 276 272 270 269 269 269 268 268
264 258 257 260 267 272 275 278 279 273 270 268 259 250 248 247 245 245 246 249 252 254 258 261 265 271 275 276 278 283 284 284 286 289 290 294 295 293 293 296 298 298 298 299 299 302 308 311 308 307 310 309 307 306 306 304 302 301 301 301 300 299 295 292 289 286 282 278 275 273 271 271 270 270
245 248 255 261 267 271 275 280 280 272 269 269 261 251 248 246 244 243 243 244 248 252 258 265 274 281 283 283 283 285 283 280 280 284 288 290 290 290 292 293 293 294 296 298 300 302 309 313 308 308 310 309 308 308 307 305 304 303 304 304 302 299 296 295 293 290 286 283 282 279 278 276 275 275
245 254 263 267 269 270 273 277 273 264 265 268 262 255 251 248 244 243 242 244 249 256 263 273 284 288 286 285 283 280 278 276 278 283 287 288 288 290 290 290 292 294 297 300 302 304 311 315 310 309 311 309 307 308 308 308 308 308 308 306 302 300 300 300 297 293 290 289 288 286 284 282 282 281
251 257 262 267 269 269 271 274 267 252 256 261 257 253 252 249 244 240 240 244 251 260 271 279 285 287 285 283 278 273 272 275 280 283 285 287 289 289 290 292 294 298 301 304 305 307 312 316 313 312 313 310 309 310 310 311 312 311 309 305 302 301 300 301 299 294 290 287 286 284 282 281 281 281
256 259 261 264 265 265 268 270 259 245 249 250 247 247 247 244 240 237 239 245 253 264 274 280 284 285 282 278 272 269 272 276 280 282 284 289 291 291 293 295 298 301 305 308 309 311 315 319 317 315 314 312 311 313 314 314 314 312 310 307 304 303 303 303 300 293 286 282 280 279 279 280 281 280
257 259 259 259 257 257 263 263 249 243 246 242 239 241 241 238 235 234 238 247 257 267 272 276 281 282 279 276 275 275 278 280 281 284 287 290 290 290 292 294 297 302 307 312 314 315 319 321 319 318 316 314 314 316 316 316 315 314 313 311 310 309 309 308 305 296 285 277 275 275 277 280 282 282
255 255 253 251 248 249 256 257 248 242 239 235 233 232 232 232 230 230 240 252 261 267 268 268 271 275 276 278 281 281 280 280 283 286 288 287 286 286 289 293 297 302 309 317 318 317 319 320 319 319 318 315 315 317 317 316 315 315 314 313 312 312 312 311 310 304 291 277 272 274 277 280 284 285
252 251 247 242 241 244 248 249 242 233 229 231 231 225 223 222 222 230 245 255 260 262 262 262 264 268 273 278 281 281 282 284 286 286 284 283 283 285 289 291 293 300 310 318 317 315 316 316 316 316 314 310 310 313 315 313 313 314 314 313 313 313 313 312 310 309 302 287 277 276 278 281 285 288
247 244 238 234 235 240 245 245 236 219 215 224 227 220 213 211 221 240 252 257 260 260 259 261 262 264 271 276 277 280 283 284 283 282 281 283 285 285 287 290 293 302 313 318 315 313 312 312 312 311 308 305 305 308 310 310 312 314 313 312 312 312 313 312 309 308 306 298 290 286 285 286 287 288
240 237 230 229 235 242 243 239 226 209 209 218 218 209 203 210 231 250 260 262 261 260 260 262 264 268 274 276 277 279 279 276 276 280 283 285 285 286 292 298 301 308 316 318 315 311 309 308 307 306 305 305 305 305 306 308 311 314 312 311 312 312 312 311 308 306 303 301 299 298 295 292 290 287
231 228 225 226 232 235 227 216 208 203 205 210 208 201 204 221 241 254 261 261 258 257 260 263 266 269 270 271 273 272 270 272 279 285 286 284 286 293 300 306 309 312 316 316 314 310 306 303 303 303 304 304 304 304 305 306 310 312 313 313 313 313 314 313 310 308 307 305 304 302 298 294 290 287
220 217 218 220 221 217 209 202 199 198 199 200 200 204 216 231 246 255 259 258 255 253 257 262 265 265 265 265 265 264 266 273 280 281 283 285 290 297 303 308 312 313 314 314 313 310 303 299 299 300 300 301 303 304 305 307 309 311 313 314 316 320 323 322 320 318 315 311 306 302 298 296 294 293
211 209 209 209 207 205 200 195 192 191 193 195 199 210 225 238 250 255 254 251 249 248 253 258 258 256 255 252 253 259 265 269 271 275 282 287 292 297 301 306 310 311 311 312 312 308 301 297 298 298 298 300 301 302 304 306 308 310 313 316 320 325 329 329 327 325 320 315 309 304 301 299 298 297
203 204 206 205 204 200 195 191 188 188 191 197 205 218 234 246 251 249 243 239 240 244 248 250 248 245 242 243 250 260 265 268 270 274 279 286 292 295 297 302 307 308 306 308 309 306 300 298 299 299 299 299 299 300 304 306 306 310 317 321 322 324 326 327 327 325 323 319 314 310 307 304 302 299
201 203 204 202 200 195 190 186 187 190 196 205 216 228 238 241 236 229 227 229 236 240 239 236 235 236 237 244 254 262 267 270 273 275 281 288 292 294 297 302 306 305 304 306 305 302 300 300 300 299 300 301 302 304 306 304 305 312 321 324 322 319 321 323 324 323 322 319 315 312 310 307 305 304
200 202 202 200 196 193 190 189 190 196 205 213 222 228 226 219 215 217 224 229 232 232 229 228 233 238 242 249 257 262 268 271 273 277 285 290 293 295 299 302 302 302 303 305 304 302 301 301 300 300 302 304 306 307 306 306 310 317 322 323 322 319 319 321 322 321 320 318 315 313 311 309 309 309
202 201 201 201 200 196 193 194 197 202 208 213 215 213 210 210 214 221 224 225 226 227 230 234 237 241 245 251 256 262 267 270 274 279 285 289 294 298 299 299 299 299 300 303 306 307 306 304 304 306 308 307 304 303 306 310 316 322 324 324 323 321 320 322 322 321 320 318 316 314 313 313 314 315
205 205 202 201 201 199 196 197 200 203 206 209 208 206 208 212 216 217 218 221 226 231 237 242 245 249 252 255 259 263 268 273 277 281 285 291 296 299 297 295 295 295 297 302 307 309 310 311 314 314 311 304 297 296 303 313 321 327 328 326 324 323 324 324 323 321 321 319 317 317 317 317 317 318
201 203 202 199 197 197 198 199 200 201 203 205 205 206 209 210 210 213 217 224 232 238 246 253 257 260 261 261 263 267 270 274 277 279 284 291 294 294 292 291 292 294 299 305 308 311 314 318 321 319 314 308 305 305 314 325 330 331 330 327 326 328 329 327 324 322 321 320 320 321 321 320 320 321
198 199 201 199 196 195 196 197 198 200 203 205 207 209 210 209 211 215 222 229 237 245 253 260 263 267 268 268 269 271 273 274 275 278 283 287 287 287 287 288 292 297 302 305 308 312 317 321 323 320 316 316 315 317 323 333 337 335 331 327 326 330 331 328 324 323 322 322 324 326 324 322 321 321
197 199 199 198 196 195 195 197 199 202 204 207 210 211 211 210 213 219 226 233 241 247 253 258 261 265 268 270 272 274 275 275 276 278 281 282 283 285 286 287 292 298 302 305 309 314 319 323 322 318 317 320 321 321 323 329 334 336 335 330 328 330 332 329 325 324 325 326 328 328 326 322 320 319
196 198 197 195 193 193 194 198 201 203 206 209 210 209 209 211 216 224 229 235 241 247 252 256 258 259 261 265 270 273 273 275 276 276 278 280 281 282 283 287 293 298 301 305 310 315 320 322 318 315 317 321 323 324 324 326 328 332 336 335 332 331 331 329 326 326 328 329 330 329 326 323 320 320
192 193 193 191 190 191 194 197 200 203 206 208 207 207 210 214 221 227 231 237 244 252 258 262 262 260 260 264 268 270 271 272 273 274 276 277 277 278 282 288 294 298 301 306 312 317 321 320 315 312 315 319 322 323 323 323 323 326 332 337 336 333 330 328 327 328 330 332 331 329 326 324 322 322
188 189 191 191 190 191 194 197 201 203 203 204 205 208 213 220 226 231 235 242 251 260 268 271 269 267 268 269 270 271 271 270 270 271 272 271 272 277 283 289 295 299 303 308 313 318 321 321 316 314 315 318 320 321 320 320 322 325 331 337 339 335 331 330 331 332 333 334 333 330 328 327 325 323
185 186 190 191 191 194 199 201 200 199 199 202 205 209 217 225 231 235 239 248 260 271 277 277 275 272 270 268 267 266 265 265 265 265 265 267 273 280 286 291 296 301 305 310 315 318 321 320 318 315 315 318 320 320 321 323 326 329 333 336 338 338 336 334 335 335 334 335 335 332 330 328 326 322
186 186 188 190 193 198 203 201 195 195 199 203 206 213 221 227 232 237 245 257 270 277 280 280 276 270 264 260 260 260 260 261 262 261 262 267 276 283 287 291 297 303 308 312 315 318 319 321 320 316 316 321 323 323 325 329 331 333 335 335 336 338 337 335 335 336 335 337 337 334 330 328 324 320
188 189 191 193 196 198 197 193 191 195 201 205 210 217 223 227 234 242 253 263 271 275 277 275 268 261 256 256 260 262 262 262 261 259 262 270 278 283 287 291 298 304 309 312 314 316 318 321 321 318 320 326 328 327 328 332 335 337 338 337 336 336 335 334 335 337 338 340 341 339 335 330 323 318
194 197 197 196 194 191 187 188 192 197 202 207 212 217 221 228 239 248 256 263 269 272 273 268 261 255 255 259 264 263 262 262 260 260 264 272 280 285 288 293 299 306 310 312 312 314 317 321 322 322 326 331 331 330 332 336 339 341 341 339 338 338 338 339 340 341 342 344 346 346 342 337 331 324
198 199 194 190 187 184 184 188 193 197 202 207 210 213 219 230 242 249 255 261 265 269 269 266 262 259 260 265 267 265 262 260 259 261 266 273 280 285 287 292 300 307 309 310 311 313 317 322 324 326 330 333 332 332 334 337 341 343 343 343 343 343 342 343 345 344 343 346 349 350 347 344 341 337